Location: Colonia Mina de C?rbuni
(46.1667°N, 22.7167°E)
Time: 06:53:35
(UTC+00:00)

Courier 1B - Pass Details

Date: 26 April 2024
Orbit: 962 x 1208 km, 28.3° (Epoch: 26 May)

Event Time Altitude Azimuth Distance (km) Brightness Sun altitude
Rises 01:05:49 0° 246° (WSW) 4,045 - -20.4°
Reaches altitude 10° 01:09:49 10° 228° (SW) 3,041 - -19.9°
Maximum altitude 01:14:18 17° 191° (S) 2,503 - -19.4°
Exits shadow 01:15:42 16° 177° (S) 2,540 9.3 -19.2°
Drops below altitude 10° 01:18:38 10° 153° (SSE) 2,931 9.8 -18.8°
Sets 01:22:23 0° 134° (SE) 3,834 10.6 -18.4°
